Weather History for KGRR - February, 2014

Change the Weather History Date:

Tuesday, February 25, 2014

  Actual Average Record
Temperature  
Mean Temperature 16 °F 29 °F  
Max Temperature 21 °F 37 °F 61 °F (1976)
Min Temperature 11 °F 22 °F -14 °F (1950)
Degree Days  
Heating Degree Days 49 36  
Month to date heating degree days 1141 962  
Since 1 July heating degree days 5106 4669  
Cooling Degree Days 0 0  
Month to date cooling degree days 0 0  
Year to date cooling degree days 0 0  
Moisture  
Dew Point 9 °F    
Average Humidity 68    
Maximum Humidity 80    
Minimum Humidity 56    
Precipitation  
Precipitation 0.04 in 0.08 in 1.43 in (1926)
Month to date precipitation 2.18 1.57  
Year to date precipitation 5.63 3.66  
Snow  
Snow 0.70 in 0.50 in 8.10 in (1935)
Month to date snowfall 25.1 13.5  
Since 1 July snowfall 103.9 63.5  
Snow Depth 17.00 in    
Sea Level Pressure  
Sea Level Pressure 30.12 in    
Wind  
Wind Speed 12 mph (West)    
Max Wind Speed 26 mph    
Max Gust Speed 31 mph    
Visibility 5 miles    
Events Snow    
T = Trace of Precipitation, MM = Missing Value Source: NWS Daily Summary

Daily Weather History Graph

Daily Weather History Graph

Search for Another Location

Airport or City:

Trip Planner

Search our weather history database for the weather conditions in past years. The results will help you decide how hot, cold, wet, or windy it might be!

Date:

Astronomy

Feb. 25, 2014 Rise Set
Actual Time 7:24 AM EST 6:26 PM EST
Civil Twilight 6:55 AM EST 6:55 PM EST
Nautical Twilight 6:23 AM EST 7:27 PM EST
Astronomical Twilight 5:50 AM EST 8:00 PM EST
Moon 4:22 AM EST (2/25) 2:27 PM EST (2/25)
Length of Visible Light 11h 59m
Length of Day
11h 02m
Waning Crescent, 18% of the Moon is Illuminated
Feb 25
Waning Crescent
Mar 1
New
Mar 8
First Quarter
Mar 16
Full
Mar 23
Last Quarter

Hourly Weather History & Observations

Time (EST) Temp. Windchill Dew Point Humidity Pressure Visibility Wind Dir Wind Speed Gust Speed Precip Events Conditions
12:53 AM 15.1 °F - 7.0 °F 70% 30.19 in 10.0 mi Calm Calm - N/A   Overcast
1:53 AM 16.0 °F - 6.1 °F 65% 30.20 in 10.0 mi Calm Calm - N/A   Overcast
2:53 AM 15.1 °F 6.4 °F 7.0 °F 70% 30.20 in 10.0 mi SSW 5.8 mph - N/A   Overcast
3:53 AM 15.1 °F 6.4 °F 8.1 °F 74% 30.19 in 10.0 mi SW 5.8 mph - N/A   Overcast
4:53 AM 15.1 °F 5.2 °F 10.0 °F 80% 30.18 in 5.0 mi SSW 6.9 mph - 0.00 in Snow Light Snow
5:53 AM 15.1 °F 5.2 °F 10.0 °F 80% 30.18 in 6.0 mi SW 6.9 mph - 0.00 in Snow Light Snow
6:53 AM 15.1 °F 4.2 °F 10.0 °F 80% 30.18 in 7.0 mi SW 8.1 mph - 0.00 in Snow Light Snow
7:53 AM 16.0 °F 4.4 °F 10.9 °F 81% 30.17 in 3.0 mi SW 9.2 mph - 0.00 in Snow Light Snow
8:24 AM 16.0 °F 6.3 °F 10.9 °F 81% 30.13 in 2.5 mi SW 6.9 mph - 0.00 in Snow Light Snow
8:47 AM 15.8 °F 5.1 °F 10.4 °F 79% 30.14 in 4.0 mi SW 8.1 mph - 0.00 in Snow Light Snow
8:53 AM 16.0 °F 5.3 °F 10.9 °F 81% 30.18 in 4.0 mi SW 8.1 mph - 0.00 in Snow Light Snow
9:53 AM 19.0 °F 7.5 °F 12.9 °F 77% 30.17 in 5.0 mi WSW 10.4 mph - 0.00 in Snow Light Snow
10:35 AM 21.0 °F 7.6 °F 12.9 °F 71% 30.12 in 9.0 mi West 15.0 mph - 0.00 in Snow Light Snow
10:50 AM 19.4 °F 5.5 °F 12.2 °F 74% 30.13 in 1.5 mi West 15.0 mph - 0.00 in Snow Light Snow
10:53 AM 19.9 °F 6.7 °F 12.9 °F 74% 30.17 in 3.0 mi West 13.8 mph - 0.00 in Snow Light Snow
11:04 AM 19.9 °F 6.7 °F 12.0 °F 71% 30.12 in 2.0 mi West 13.8 mph - 0.00 in Snow Light Snow
11:22 AM 19.9 °F 5.2 °F 14.0 °F 78% 30.12 in 1.0 mi West 17.3 mph 24.2 mph 0.00 in Snow Light Snow
11:53 AM 19.9 °F 6.2 °F 10.9 °F 68% 30.16 in 2.0 mi West 15.0 mph - 0.00 in Snow Light Snow
12:27 PM 19.9 °F 5.2 °F 10.9 °F 68% 30.10 in 4.0 mi West 17.3 mph - 0.00 in Snow Light Snow
12:53 PM 19.9 °F 5.7 °F 12.0 °F 71% 30.14 in 3.0 mi West 16.1 mph - 0.00 in Snow Light Snow
1:03 PM 19.9 °F 6.7 °F 12.0 °F 71% 30.09 in 1.8 mi West 13.8 mph - 0.00 in Snow Light Snow
1:53 PM 19.9 °F 5.2 °F 12.9 °F 74% 30.12 in 1.5 mi WSW 17.3 mph - 0.00 in Snow Light Snow
2:53 PM 19.0 °F 4.0 °F 12.9 °F 77% 30.11 in 1.0 mi West 17.3 mph - 0.00 in Snow Light Snow
3:53 PM 19.0 °F 3.2 °F 12.0 °F 74% 30.09 in 0.5 mi West 19.6 mph - 0.00 in Snow Snow
4:30 PM 18.0 °F 1.3 °F 10.0 °F 71% 30.04 in 1.8 mi West 20.7 mph 27.6 mph 0.00 in Snow Light Snow
4:43 PM 18.0 °F 2.2 °F 9.0 °F 68% 30.03 in 5.0 mi West 18.4 mph 25.3 mph 0.00 in Snow Light Snow
4:53 PM 18.0 °F 1.7 °F 8.1 °F 65% 30.08 in 4.0 mi West 19.6 mph - 0.00 in Snow Light Snow
5:37 PM 17.1 °F 2.0 °F 5.0 °F 59% 30.03 in 6.0 mi West 16.1 mph 27.6 mph 0.00 in Snow Light Snow
5:53 PM 17.1 °F 2.0 °F 5.0 °F 59% 30.08 in 7.0 mi WNW 16.1 mph - 0.00 in Snow Light Snow
6:53 PM 16.0 °F 1.7 °F 5.0 °F 62% 30.07 in 8.0 mi West 13.8 mph 25.3 mph 0.00 in Snow Light Snow
7:46 PM 15.1 °F -1.1 °F 8.1 °F 74% 30.03 in 2.5 mi WNW 17.3 mph - 0.00 in Snow Light Snow
7:53 PM 14.0 °F -0.8 °F 8.1 °F 77% 30.08 in 2.5 mi WNW 13.8 mph 23.0 mph 0.00 in Snow Light Snow
8:03 PM 15.1 °F 0.5 °F 8.1 °F 74% 30.03 in 5.0 mi WNW 13.8 mph - 0.00 in Snow Light Snow
8:18 PM 15.1 °F 1.8 °F 7.0 °F 70% 30.03 in 9.0 mi WNW 11.5 mph - 0.00 in Snow Light Snow
8:53 PM 15.1 °F -1.1 °F 5.0 °F 64% 30.08 in 5.0 mi WNW 17.3 mph - 0.00 in Snow Light Snow
9:46 PM 14.0 °F -0.8 °F 6.1 °F 71% 30.04 in 2.5 mi WNW 13.8 mph - 0.00 in Snow Light Snow
9:53 PM 14.0 °F -0.2 °F 7.0 °F 74% 30.09 in 1.8 mi WNW 12.7 mph - 0.00 in Snow Light Snow
10:53 PM 12.9 °F -2.2 °F 6.1 °F 74% 30.09 in 3.0 mi WNW 13.8 mph 23.0 mph 0.00 in Snow Light Snow
11:38 PM 12.0 °F -3.4 °F 6.1 °F 77% 30.05 in 1.8 mi WNW 13.8 mph - 0.00 in Snow Light Snow
11:50 PM 12.2 °F -2.5 °F 5.0 °F 73% 30.05 in 3.0 mi WNW 12.7 mph 20.7 mph 0.00 in Snow Light Snow
11:53 PM 12.0 °F -3.4 °F 5.0 °F 73% 30.09 in 5.0 mi WNW 13.8 mph - 0.00 in Snow Light Snow